Year,Month,Day,Hour,Minute,Value (Times are PST for windspeed in km/hr)
2018,12,22,00,00,0.50
2018,12,22,00,01,2.10
2018,12,22,00,02,2.30
2018,12,22,00,03,0.10
2018,12,22,00,04,4.00
2018,12,22,00,05,5.20
2018,12,22,00,06,1.90
2018,12,22,00,07,1.20
2018,12,22,00,08,0.20
2018,12,22,00,09,1.90
2018,12,22,00,10,7.10
2018,12,22,00,11,3.90
2018,12,22,00,12,1.80
2018,12,22,00,13,0.10
2018,12,22,00,14,0.90
2018,12,22,00,15,3.70
2018,12,22,00,16,2.50
2018,12,22,00,17,1.70
2018,12,22,00,18,1.70
2018,12,22,00,19,4.90
2018,12,22,00,20,4.20
2018,12,22,00,21,3.30
2018,12,22,00,22,2.90
2018,12,22,00,23,0.20
2018,12,22,00,24,0.30
2018,12,22,00,25,0.00
2018,12,22,00,26,3.80
2018,12,22,00,27,2.20
2018,12,22,00,28,0.00
2018,12,22,00,29,0.10
2018,12,22,00,30,0.00
2018,12,22,00,31,0.10
2018,12,22,00,32,0.60
2018,12,22,00,33,3.60
2018,12,22,00,34,5.20
2018,12,22,00,35,1.70
2018,12,22,00,36,1.30
2018,12,22,00,37,0.00
2018,12,22,00,38,0.40
2018,12,22,00,39,1.90
2018,12,22,00,40,4.70
2018,12,22,00,41,2.70
2018,12,22,00,42,3.50
2018,12,22,00,43,4.80
2018,12,22,00,44,2.40
2018,12,22,00,45,3.10
2018,12,22,00,46,4.10
2018,12,22,00,47,2.20
2018,12,22,00,48,0.50
2018,12,22,00,49,2.30
2018,12,22,00,50,4.70
2018,12,22,00,51,3.70
2018,12,22,00,52,5.40
2018,12,22,00,53,7.00
2018,12,22,00,54,5.20
2018,12,22,00,55,1.00
2018,12,22,00,56,0.60
2018,12,22,00,57,1.30
2018,12,22,00,58,3.20
2018,12,22,00,59,4.10
2018,12,22,01,00,2.80
2018,12,22,01,01,4.30
2018,12,22,01,02,4.00
2018,12,22,01,03,2.80
2018,12,22,01,04,4.80
2018,12,22,01,05,0.30
2018,12,22,01,06,3.40
2018,12,22,01,07,4.30
2018,12,22,01,08,3.40
2018,12,22,01,09,2.70
2018,12,22,01,10,3.80
2018,12,22,01,11,1.50
2018,12,22,01,12,2.10
2018,12,22,01,13,2.10
2018,12,22,01,14,2.10
2018,12,22,01,15,1.60
2018,12,22,01,16,1.10
2018,12,22,01,17,0.00
2018,12,22,01,18,2.20
2018,12,22,01,19,4.80
2018,12,22,01,20,4.10
2018,12,22,01,21,3.60
2018,12,22,01,22,2.80
2018,12,22,01,23,2.70
2018,12,22,01,24,2.50
2018,12,22,01,25,2.10
2018,12,22,01,26,0.50
2018,12,22,01,27,3.70
2018,12,22,01,28,1.00
2018,12,22,01,29,0.00
2018,12,22,01,30,0.60
2018,12,22,01,31,0.00
2018,12,22,01,32,0.00
2018,12,22,01,33,0.00
2018,12,22,01,34,0.00
2018,12,22,01,35,0.00
2018,12,22,01,36,0.00
2018,12,22,01,37,0.10
2018,12,22,01,38,1.80
2018,12,22,01,39,1.40
2018,12,22,01,40,0.00
2018,12,22,01,41,0.00
2018,12,22,01,42,0.00
2018,12,22,01,43,0.00
2018,12,22,01,44,0.00
2018,12,22,01,45,0.00
2018,12,22,01,46,0.00
2018,12,22,01,47,0.00
2018,12,22,01,48,0.00
2018,12,22,01,49,0.00
2018,12,22,01,50,2.00
2018,12,22,01,51,2.50
2018,12,22,01,52,4.90
2018,12,22,01,53,4.70
2018,12,22,01,54,2.20
2018,12,22,01,55,0.10
2018,12,22,01,56,0.80
2018,12,22,01,57,0.00
2018,12,22,01,58,4.10
2018,12,22,01,59,4.40
2018,12,22,02,00,5.10
2018,12,22,02,01,3.10
2018,12,22,02,02,2.80
2018,12,22,02,03,4.80
2018,12,22,02,04,7.90
2018,12,22,02,05,9.70
2018,12,22,02,06,4.80
2018,12,22,02,07,3.50
2018,12,22,02,08,11.30
2018,12,22,02,09,7.20
2018,12,22,02,10,3.10
2018,12,22,02,11,3.60
2018,12,22,02,12,2.70
2018,12,22,02,13,5.00
2018,12,22,02,14,3.10
2018,12,22,02,15,1.80
2018,12,22,02,16,0.00
2018,12,22,02,17,1.30
2018,12,22,02,18,0.90
2018,12,22,02,19,4.60
2018,12,22,02,20,5.60
2018,12,22,02,21,6.00
2018,12,22,02,22,5.70
2018,12,22,02,23,7.80
2018,12,22,02,24,6.90
2018,12,22,02,25,4.80
2018,12,22,02,26,3.90
2018,12,22,02,27,5.70
2018,12,22,02,28,2.50
2018,12,22,02,29,4.70
2018,12,22,02,30,6.00
2018,12,22,02,31,1.40
2018,12,22,02,32,4.80
2018,12,22,02,33,5.00
2018,12,22,02,34,4.50
2018,12,22,02,35,4.30
2018,12,22,02,36,3.40
2018,12,22,02,37,1.60
2018,12,22,02,38,5.10
2018,12,22,02,39,4.60
2018,12,22,02,40,4.00
2018,12,22,02,41,7.20
2018,12,22,02,42,3.20
2018,12,22,02,43,4.00
2018,12,22,02,44,4.20
2018,12,22,02,45,4.60
2018,12,22,02,46,4.60
2018,12,22,02,47,3.20
2018,12,22,02,48,3.50
2018,12,22,02,49,4.50
2018,12,22,02,50,1.30
2018,12,22,02,51,0.80
2018,12,22,02,52,7.20
2018,12,22,02,53,3.80
2018,12,22,02,54,3.90
2018,12,22,02,55,3.10
2018,12,22,02,56,6.40
2018,12,22,02,57,3.20
2018,12,22,02,58,1.90
2018,12,22,02,59,0.80
2018,12,22,03,00,4.40
2018,12,22,03,01,5.10
2018,12,22,03,02,2.70
2018,12,22,03,03,2.40
2018,12,22,03,04,3.70
2018,12,22,03,05,6.30
2018,12,22,03,06,6.30
2018,12,22,03,07,5.30
2018,12,22,03,08,0.50
2018,12,22,03,09,4.30
2018,12,22,03,10,3.00
2018,12,22,03,11,0.20
2018,12,22,03,12,0.20
2018,12,22,03,13,0.20
2018,12,22,03,14,2.70
2018,12,22,03,15,4.20
2018,12,22,03,16,2.70
2018,12,22,03,17,1.10
2018,12,22,03,18,2.40
2018,12,22,03,19,4.10
2018,12,22,03,20,2.20
2018,12,22,03,21,0.80
2018,12,22,03,22,0.10
2018,12,22,03,23,1.90
2018,12,22,03,24,4.60
2018,12,22,03,25,2.50
2018,12,22,03,26,1.00
2018,12,22,03,27,0.20
2018,12,22,03,28,0.00
2018,12,22,03,29,0.10
2018,12,22,03,30,2.40
2018,12,22,03,31,1.00
2018,12,22,03,32,1.00
2018,12,22,03,33,3.40
2018,12,22,03,34,4.10
2018,12,22,03,35,2.90
2018,12,22,03,36,1.40
2018,12,22,03,37,0.00
2018,12,22,03,38,1.90
2018,12,22,03,39,4.30
2018,12,22,03,40,4.90
2018,12,22,03,41,3.10
2018,12,22,03,42,3.10
2018,12,22,03,43,5.50
2018,12,22,03,44,4.60
2018,12,22,03,45,3.70
2018,12,22,03,46,3.10
2018,12,22,03,47,4.70
2018,12,22,03,48,3.50
2018,12,22,03,49,0.30
2018,12,22,03,50,6.50
2018,12,22,03,51,5.10
2018,12,22,03,52,2.00
2018,12,22,03,53,0.20
2018,12,22,03,54,0.60
2018,12,22,03,55,0.40
2018,12,22,03,56,0.90
2018,12,22,03,57,0.10
2018,12,22,03,58,1.50
2018,12,22,03,59,0.10
2018,12,22,04,00,0.90
2018,12,22,04,01,1.00
2018,12,22,04,02,3.10
2018,12,22,04,03,2.50
2018,12,22,04,04,2.00
2018,12,22,04,05,1.40
2018,12,22,04,06,5.20
2018,12,22,04,07,3.10
2018,12,22,04,08,3.60
2018,12,22,04,09,5.70
2018,12,22,04,10,3.00
2018,12,22,04,11,4.40
2018,12,22,04,12,3.50
2018,12,22,04,13,5.00
2018,12,22,04,14,2.30
2018,12,22,04,15,2.40
2018,12,22,04,16,3.90
2018,12,22,04,17,3.90
2018,12,22,04,18,3.50
2018,12,22,04,19,1.90
2018,12,22,04,20,3.10
2018,12,22,04,21,0.70
2018,12,22,04,22,3.00
2018,12,22,04,23,5.30
2018,12,22,04,24,5.10
2018,12,22,04,25,2.10
2018,12,22,04,26,3.90
2018,12,22,04,27,2.40
2018,12,22,04,28,3.40
2018,12,22,04,29,4.60
2018,12,22,04,30,5.50
2018,12,22,04,31,5.20
2018,12,22,04,32,4.50
2018,12,22,04,33,1.40
2018,12,22,04,34,2.20
2018,12,22,04,35,5.90
2018,12,22,04,36,4.00
2018,12,22,04,37,2.10
2018,12,22,04,38,3.50
2018,12,22,04,39,2.20
2018,12,22,04,40,0.20
2018,12,22,04,41,1.20
2018,12,22,04,42,0.90
2018,12,22,04,43,0.10
2018,12,22,04,44,0.90
2018,12,22,04,45,2.80
2018,12,22,04,46,3.40
2018,12,22,04,47,2.10
2018,12,22,04,48,2.10
2018,12,22,04,49,0.40
2018,12,22,04,50,2.00
2018,12,22,04,51,2.30
2018,12,22,04,52,0.20
2018,12,22,04,53,1.40
2018,12,22,04,54,2.40
2018,12,22,04,55,3.10
2018,12,22,04,56,7.00
2018,12,22,04,57,3.90
2018,12,22,04,58,3.50
2018,12,22,04,59,3.00
2018,12,22,05,00,3.60
2018,12,22,05,01,3.60
2018,12,22,05,02,3.40
2018,12,22,05,03,3.00
2018,12,22,05,04,0.20
2018,12,22,05,05,2.10
2018,12,22,05,06,1.60
2018,12,22,05,07,4.40
2018,12,22,05,08,5.00
2018,12,22,05,09,4.80
2018,12,22,05,10,4.50
2018,12,22,05,11,3.40
2018,12,22,05,12,1.60
2018,12,22,05,13,0.20
2018,12,22,05,14,2.10
2018,12,22,05,15,4.10
2018,12,22,05,16,0.30
2018,12,22,05,17,3.90
2018,12,22,05,18,1.20
2018,12,22,05,19,6.80
2018,12,22,05,20,8.50
2018,12,22,05,21,2.90
2018,12,22,05,22,4.10
2018,12,22,05,23,12.00
2018,12,22,05,24,3.90
2018,12,22,05,25,5.30
2018,12,22,05,26,3.60
2018,12,22,05,27,2.20
2018,12,22,05,28,0.80
2018,12,22,05,29,0.30
2018,12,22,05,30,3.00
2018,12,22,05,31,1.70
2018,12,22,05,32,1.00
2018,12,22,05,33,2.80
2018,12,22,05,34,3.00
2018,12,22,05,35,5.80
2018,12,22,05,36,3.90
2018,12,22,05,37,4.90
2018,12,22,05,38,3.50
2018,12,22,05,39,0.20
2018,12,22,05,40,0.00
2018,12,22,05,41,3.50
2018,12,22,05,42,7.60
2018,12,22,05,43,5.50
2018,12,22,05,44,8.80
2018,12,22,05,45,11.90
2018,12,22,05,46,3.70
2018,12,22,05,47,1.30
2018,12,22,05,48,5.50
2018,12,22,05,49,3.40
2018,12,22,05,50,3.40
2018,12,22,05,51,2.20
2018,12,22,05,52,0.60
2018,12,22,05,53,0.70
2018,12,22,05,54,3.90
2018,12,22,05,55,3.30
2018,12,22,05,56,3.10
2018,12,22,05,57,3.60
2018,12,22,05,58,3.90
2018,12,22,05,59,4.20
2018,12,22,06,00,7.00
2018,12,22,06,01,3.40
2018,12,22,06,02,2.60
2018,12,22,06,03,3.70
2018,12,22,06,04,1.40
2018,12,22,06,05,4.10
2018,12,22,06,06,4.10
2018,12,22,06,07,1.40
2018,12,22,06,08,4.00
2018,12,22,06,09,4.70
2018,12,22,06,10,1.60
2018,12,22,06,11,6.00
2018,12,22,06,12,4.40
2018,12,22,06,13,4.60
2018,12,22,06,14,5.20
2018,12,22,06,15,3.00
2018,12,22,06,16,0.60
2018,12,22,06,17,1.40
2018,12,22,06,18,1.50
2018,12,22,06,19,1.50
2018,12,22,06,20,5.00
2018,12,22,06,21,2.70
2018,12,22,06,22,0.10
2018,12,22,06,23,0.00
2018,12,22,06,24,0.90
2018,12,22,06,25,2.10
2018,12,22,06,26,2.70
2018,12,22,06,27,2.50
2018,12,22,06,28,3.10
2018,12,22,06,29,3.00
2018,12,22,06,30,6.00
2018,12,22,06,31,2.90
2018,12,22,06,32,1.30
2018,12,22,06,33,4.50
2018,12,22,06,34,3.30
2018,12,22,06,35,3.50
2018,12,22,06,36,4.90
2018,12,22,06,37,2.70
2018,12,22,06,38,3.50
2018,12,22,06,39,5.60
2018,12,22,06,40,0.70
2018,12,22,06,41,3.70
2018,12,22,06,42,5.40
2018,12,22,06,43,5.40
2018,12,22,06,44,4.90
2018,12,22,06,45,4.90
2018,12,22,06,46,5.70
2018,12,22,06,47,0.70
2018,12,22,06,48,7.10
2018,12,22,06,49,2.60
2018,12,22,06,50,6.40
2018,12,22,06,51,5.20
2018,12,22,06,52,3.80
2018,12,22,06,53,2.00
2018,12,22,06,54,3.60
2018,12,22,06,55,2.60
2018,12,22,06,56,5.20
2018,12,22,06,57,5.40
2018,12,22,06,58,6.00
2018,12,22,06,59,5.30
2018,12,22,07,00,2.50
2018,12,22,07,01,3.50
2018,12,22,07,02,3.70
2018,12,22,07,03,5.50
2018,12,22,07,04,7.20
2018,12,22,07,05,4.40
2018,12,22,07,06,5.80
2018,12,22,07,07,6.70
2018,12,22,07,08,5.10
2018,12,22,07,09,3.10
2018,12,22,07,10,8.10
2018,12,22,07,11,7.30
2018,12,22,07,12,4.60
2018,12,22,07,13,1.40
2018,12,22,07,14,2.70
2018,12,22,07,15,4.70
2018,12,22,07,16,6.80
2018,12,22,07,17,3.90
2018,12,22,07,18,3.10
2018,12,22,07,19,5.20
2018,12,22,07,20,4.50
2018,12,22,07,21,4.70
2018,12,22,07,22,5.00
2018,12,22,07,23,4.50
2018,12,22,07,24,3.10
2018,12,22,07,25,2.70
2018,12,22,07,26,3.90
2018,12,22,07,27,4.50
2018,12,22,07,28,3.40
2018,12,22,07,29,5.60
2018,12,22,07,30,2.90
2018,12,22,07,31,3.40
2018,12,22,07,32,2.20
2018,12,22,07,33,2.00
2018,12,22,07,34,6.60
2018,12,22,07,35,6.00
2018,12,22,07,36,3.30
2018,12,22,07,37,5.30
2018,12,22,07,38,3.10
2018,12,22,07,39,3.50
2018,12,22,07,40,5.40
2018,12,22,07,41,6.30
2018,12,22,07,42,4.20
2018,12,22,07,43,4.80
2018,12,22,07,44,5.50
2018,12,22,07,45,5.60
2018,12,22,07,46,5.70
2018,12,22,07,47,7.20
2018,12,22,07,48,6.20
2018,12,22,07,49,6.40
2018,12,22,07,50,6.70
2018,12,22,07,51,6.70
2018,12,22,07,52,4.90
2018,12,22,07,53,6.90
2018,12,22,07,54,5.90
2018,12,22,07,55,4.40
2018,12,22,07,56,6.30
2018,12,22,07,57,4.70
2018,12,22,07,58,3.90
2018,12,22,07,59,5.90
2018,12,22,08,00,5.00
2018,12,22,08,01,4.40
2018,12,22,08,02,5.70
2018,12,22,08,03,6.50
2018,12,22,08,04,7.00
2018,12,22,08,05,6.20
2018,12,22,08,06,5.40
2018,12,22,08,07,7.60
2018,12,22,08,08,6.90
2018,12,22,08,09,5.40
2018,12,22,08,10,4.30
2018,12,22,08,11,4.70
2018,12,22,08,12,4.20
2018,12,22,08,13,5.60
2018,12,22,08,14,6.20
2018,12,22,08,15,4.20
2018,12,22,08,16,6.80
2018,12,22,08,17,8.30
2018,12,22,08,18,6.40
2018,12,22,08,19,6.30
2018,12,22,08,20,6.10
2018,12,22,08,21,7.60
2018,12,22,08,22,6.40
2018,12,22,08,23,5.70
2018,12,22,08,24,6.70
2018,12,22,08,25,6.50
2018,12,22,08,26,7.60
2018,12,22,08,27,6.80
2018,12,22,08,28,7.30
2018,12,22,08,29,7.30
2018,12,22,08,30,6.30
2018,12,22,08,31,6.50
2018,12,22,08,32,6.20
2018,12,22,08,33,6.20
2018,12,22,08,34,7.50
2018,12,22,08,35,6.50
2018,12,22,08,36,6.40
2018,12,22,08,37,5.70
2018,12,22,08,38,6.80
2018,12,22,08,39,4.50
2018,12,22,08,40,4.30
2018,12,22,08,41,4.10
2018,12,22,08,42,5.60
2018,12,22,08,43,5.60
2018,12,22,08,44,5.90
2018,12,22,08,45,4.90
2018,12,22,08,46,5.80
2018,12,22,08,47,5.00
2018,12,22,08,48,5.70
2018,12,22,08,49,6.50
2018,12,22,08,50,4.70
2018,12,22,08,51,6.30
2018,12,22,08,52,6.40
2018,12,22,08,53,7.00
2018,12,22,08,54,6.60
2018,12,22,08,55,6.00
2018,12,22,08,56,6.40
2018,12,22,08,57,4.90
2018,12,22,08,58,6.40
2018,12,22,08,59,5.90
2018,12,22,09,00,8.00
2018,12,22,09,01,6.30
2018,12,22,09,02,6.30
2018,12,22,09,03,4.90
2018,12,22,09,04,5.80
2018,12,22,09,05,6.90
2018,12,22,09,06,7.00
2018,12,22,09,07,5.50
2018,12,22,09,08,7.10
2018,12,22,09,09,3.10
2018,12,22,09,10,5.40
2018,12,22,09,11,6.10
2018,12,22,09,12,5.60
2018,12,22,09,13,6.50
2018,12,22,09,14,5.30
2018,12,22,09,15,5.60
2018,12,22,09,16,5.50
2018,12,22,09,17,5.10
2018,12,22,09,18,5.70
2018,12,22,09,19,7.10
2018,12,22,09,20,7.70
2018,12,22,09,21,7.20
2018,12,22,09,22,6.90
2018,12,22,09,23,5.50
2018,12,22,09,24,7.00
2018,12,22,09,25,7.20
2018,12,22,09,26,8.40
2018,12,22,09,27,8.50
2018,12,22,09,28,7.20
2018,12,22,09,29,7.60
2018,12,22,09,30,8.20
2018,12,22,09,31,5.60
2018,12,22,09,32,4.60
2018,12,22,09,33,6.40
2018,12,22,09,34,7.50
2018,12,22,09,35,7.50
2018,12,22,09,36,5.30
2018,12,22,09,37,5.20
2018,12,22,09,38,4.80
2018,12,22,09,39,6.90
2018,12,22,09,40,6.30
2018,12,22,09,41,7.50
2018,12,22,09,42,8.30
2018,12,22,09,43,6.30
2018,12,22,09,44,7.30
2018,12,22,09,45,7.60
2018,12,22,09,46,6.80
2018,12,22,09,47,5.80
2018,12,22,09,48,4.40
2018,12,22,09,49,6.80
2018,12,22,09,50,5.70
2018,12,22,09,51,6.30
2018,12,22,09,52,7.80
2018,12,22,09,53,5.40
2018,12,22,09,54,6.10
2018,12,22,09,55,4.70
2018,12,22,09,56,6.40
2018,12,22,09,57,3.80
2018,12,22,09,58,2.20
2018,12,22,09,59,3.90
2018,12,22,10,00,3.00
2018,12,22,10,01,1.90
2018,12,22,10,02,2.30
2018,12,22,10,03,6.20
2018,12,22,10,04,3.40
2018,12,22,10,05,5.60
2018,12,22,10,06,4.10
2018,12,22,10,07,3.10
2018,12,22,10,08,4.40
2018,12,22,10,09,5.10
2018,12,22,10,10,4.70
2018,12,22,10,11,4.80
2018,12,22,10,12,4.50
2018,12,22,10,13,6.40
2018,12,22,10,14,5.10
2018,12,22,10,15,5.50
2018,12,22,10,16,4.30
2018,12,22,10,17,4.40
2018,12,22,10,18,5.40
2018,12,22,10,19,5.60
2018,12,22,10,20,5.10
2018,12,22,10,21,6.00
2018,12,22,10,22,5.40
2018,12,22,10,23,5.70
2018,12,22,10,24,6.20
2018,12,22,10,25,4.10
2018,12,22,10,26,5.20
2018,12,22,10,27,6.00
2018,12,22,10,28,5.70
2018,12,22,10,29,5.20
2018,12,22,10,30,4.10
2018,12,22,10,31,6.10
2018,12,22,10,32,5.70
2018,12,22,10,33,5.90
2018,12,22,10,34,4.90
2018,12,22,10,35,4.30
2018,12,22,10,36,5.30
2018,12,22,10,37,6.80
2018,12,22,10,38,4.40
2018,12,22,10,39,4.70
2018,12,22,10,40,2.40
2018,12,22,10,41,2.60
2018,12,22,10,42,5.60
2018,12,22,10,43,6.40
2018,12,22,10,44,6.70
2018,12,22,10,45,7.60
2018,12,22,10,46,5.60
2018,12,22,10,47,5.00
2018,12,22,10,48,5.80
2018,12,22,10,49,4.00
2018,12,22,10,50,7.10
2018,12,22,10,51,5.00
2018,12,22,10,52,5.70
2018,12,22,10,53,6.30
2018,12,22,10,54,7.80
2018,12,22,10,55,7.40
2018,12,22,10,56,5.80
2018,12,22,10,57,5.50
2018,12,22,10,58,5.40
2018,12,22,10,59,6.40
2018,12,22,11,00,4.80
2018,12,22,11,01,7.10
2018,12,22,11,02,8.10
2018,12,22,11,03,8.30
2018,12,22,11,04,5.10
2018,12,22,11,05,7.80
2018,12,22,11,06,6.20
2018,12,22,11,07,6.10
2018,12,22,11,08,7.40
2018,12,22,11,09,7.50
2018,12,22,11,10,4.90
2018,12,22,11,11,5.30
2018,12,22,11,12,6.40
2018,12,22,11,13,5.20
2018,12,22,11,14,5.00
2018,12,22,11,15,7.50
2018,12,22,11,16,6.10
2018,12,22,11,17,5.50
2018,12,22,11,18,6.40
2018,12,22,11,19,6.10
2018,12,22,11,20,5.70
2018,12,22,11,21,5.60
2018,12,22,11,22,4.70
2018,12,22,11,23,3.60
2018,12,22,11,24,2.70
2018,12,22,11,25,4.70
2018,12,22,11,26,4.90
2018,12,22,11,27,6.20
2018,12,22,11,28,8.90
2018,12,22,11,29,3.50
2018,12,22,11,30,2.70
2018,12,22,11,31,3.10
2018,12,22,11,32,4.80
2018,12,22,11,33,2.30
2018,12,22,11,34,3.40
2018,12,22,11,35,0.20
2018,12,22,11,36,0.90
2018,12,22,11,37,2.00
2018,12,22,11,38,5.70
2018,12,22,11,39,3.50
2018,12,22,11,40,1.40
2018,12,22,11,41,2.30
2018,12,22,11,42,2.70
2018,12,22,11,43,3.20
2018,12,22,11,44,5.50
2018,12,22,11,45,3.40
2018,12,22,11,46,3.30
2018,12,22,11,47,2.70
2018,12,22,11,48,2.70
2018,12,22,11,49,1.90
2018,12,22,11,50,2.30
2018,12,22,11,51,0.00
2018,12,22,11,52,1.10
2018,12,22,11,53,1.10
2018,12,22,11,54,1.50
2018,12,22,11,55,1.00
2018,12,22,11,56,1.40
2018,12,22,11,57,0.80
2018,12,22,11,58,2.70
2018,12,22,11,59,2.00
2018,12,22,12,00,0.50
2018,12,22,12,01,4.30
2018,12,22,12,02,2.10
2018,12,22,12,03,1.90
2018,12,22,12,04,1.40
2018,12,22,12,05,2.40
2018,12,22,12,06,4.70
2018,12,22,12,07,4.50
2018,12,22,12,08,2.50
2018,12,22,12,09,3.20
2018,12,22,12,10,1.30
2018,12,22,12,11,2.70
2018,12,22,12,12,2.60
2018,12,22,12,13,0.60
2018,12,22,12,14,2.00
2018,12,22,12,15,4.70
2018,12,22,12,16,3.70
2018,12,22,12,17,5.00
2018,12,22,12,18,2.60
2018,12,22,12,19,4.10
2018,12,22,12,20,3.10
2018,12,22,12,21,3.20
2018,12,22,12,22,3.60
2018,12,22,12,23,3.90
2018,12,22,12,24,3.90
2018,12,22,12,25,5.60
2018,12,22,12,26,5.40
2018,12,22,12,27,4.90
2018,12,22,12,28,4.60
2018,12,22,12,29,5.60
2018,12,22,12,30,6.30
2018,12,22,12,31,3.40
2018,12,22,12,32,8.60
2018,12,22,12,33,5.20
2018,12,22,12,34,5.00
2018,12,22,12,35,0.90
2018,12,22,12,36,1.40
2018,12,22,12,37,1.80
2018,12,22,12,38,3.50
2018,12,22,12,39,5.40
2018,12,22,12,40,3.00
2018,12,22,12,41,5.30
2018,12,22,12,42,5.10
2018,12,22,12,43,4.30
2018,12,22,12,44,1.10
2018,12,22,12,45,0.20
2018,12,22,12,46,2.20
2018,12,22,12,47,1.60
2018,12,22,12,48,1.00
2018,12,22,12,49,2.30
2018,12,22,12,50,3.30
2018,12,22,12,51,1.60
2018,12,22,12,52,8.50
2018,12,22,12,53,6.00
2018,12,22,12,54,3.40
2018,12,22,12,55,4.10
2018,12,22,12,56,0.50
2018,12,22,12,57,2.70
2018,12,22,12,58,4.30
2018,12,22,12,59,4.10
2018,12,22,13,00,5.10
2018,12,22,13,01,5.10
2018,12,22,13,02,5.60
2018,12,22,13,03,4.20
2018,12,22,13,04,5.10
2018,12,22,13,05,4.70
2018,12,22,13,06,6.80
2018,12,22,13,07,3.20
2018,12,22,13,08,2.20
2018,12,22,13,09,0.00
2018,12,22,13,10,2.90
2018,12,22,13,11,2.70
2018,12,22,13,12,4.80
2018,12,22,13,13,6.00
2018,12,22,13,14,6.70
2018,12,22,13,15,2.70
2018,12,22,13,16,6.60
2018,12,22,13,17,7.70
2018,12,22,13,18,0.60
2018,12,22,13,19,3.20
2018,12,22,13,20,0.80
2018,12,22,13,21,2.50
2018,12,22,13,22,0.30
2018,12,22,13,23,0.10
2018,12,22,13,24,1.80
2018,12,22,13,25,4.50
2018,12,22,13,26,1.00
2018,12,22,13,27,0.00
2018,12,22,13,28,0.10
2018,12,22,13,29,0.20
2018,12,22,13,30,1.30
2018,12,22,13,31,2.30
2018,12,22,13,32,0.40
2018,12,22,13,33,2.20
2018,12,22,13,34,2.50
2018,12,22,13,35,1.20
2018,12,22,13,36,0.70
2018,12,22,13,37,3.80
2018,12,22,13,38,4.40
2018,12,22,13,39,3.50
2018,12,22,13,40,4.50
2018,12,22,13,41,2.90
2018,12,22,13,42,1.50
2018,12,22,13,43,4.80
2018,12,22,13,44,1.40
2018,12,22,13,45,1.00
2018,12,22,13,46,3.70
2018,12,22,13,47,4.70
2018,12,22,13,48,5.10
2018,12,22,13,49,3.40
2018,12,22,13,50,3.50
2018,12,22,13,51,7.50
2018,12,22,13,52,2.40
2018,12,22,13,53,0.20
2018,12,22,13,54,1.00
2018,12,22,13,55,1.30
2018,12,22,13,56,1.10
2018,12,22,13,57,3.40
2018,12,22,13,58,6.60
2018,12,22,13,59,3.70
2018,12,22,14,00,3.70
2018,12,22,14,01,1.00
2018,12,22,14,02,7.60
2018,12,22,14,03,9.80
2018,12,22,14,04,9.10
2018,12,22,14,05,6.80
2018,12,22,14,06,4.90
2018,12,22,14,07,5.50
2018,12,22,14,08,4.70
2018,12,22,14,09,4.10
2018,12,22,14,10,11.00
2018,12,22,14,11,8.60
2018,12,22,14,12,9.60
2018,12,22,14,13,5.60
2018,12,22,14,14,3.60
2018,12,22,14,15,5.10
2018,12,22,14,16,2.40
2018,12,22,14,17,6.40
2018,12,22,14,18,9.30
2018,12,22,14,19,10.40
2018,12,22,14,20,2.80
2018,12,22,14,21,4.30
2018,12,22,14,22,5.40
2018,12,22,14,23,5.10
2018,12,22,14,24,10.80
2018,12,22,14,25,9.00
2018,12,22,14,26,5.40
2018,12,22,14,27,4.90
2018,12,22,14,28,1.10
2018,12,22,14,29,1.60
2018,12,22,14,30,3.50
2018,12,22,14,31,3.90
2018,12,22,14,32,3.10
2018,12,22,14,33,4.50
2018,12,22,14,34,3.00
2018,12,22,14,35,1.60
2018,12,22,14,36,1.60
2018,12,22,14,37,3.00
2018,12,22,14,38,0.90
2018,12,22,14,39,0.20
2018,12,22,14,40,6.80
2018,12,22,14,41,2.20
2018,12,22,14,42,6.40
2018,12,22,14,43,7.40
2018,12,22,14,44,4.20
2018,12,22,14,45,7.20
2018,12,22,14,46,7.60
2018,12,22,14,47,6.80
2018,12,22,14,48,5.40
2018,12,22,14,49,4.50
2018,12,22,14,50,2.70
2018,12,22,14,51,4.70
2018,12,22,14,52,0.40
2018,12,22,14,53,0.70
2018,12,22,14,54,4.30
2018,12,22,14,55,6.80
2018,12,22,14,56,6.00
2018,12,22,14,57,0.70
2018,12,22,14,58,3.20
2018,12,22,14,59,1.60
2018,12,22,15,00,1.90
2018,12,22,15,01,6.40
2018,12,22,15,02,8.90
2018,12,22,15,03,11.40
2018,12,22,15,04,6.10
2018,12,22,15,05,2.20
2018,12,22,15,06,3.10
2018,12,22,15,07,3.10
2018,12,22,15,08,4.70
2018,12,22,15,09,7.60
2018,12,22,15,10,6.50
2018,12,22,15,11,6.80
2018,12,22,15,12,3.40
2018,12,22,15,13,9.20
2018,12,22,15,14,6.20
2018,12,22,15,15,5.10
2018,12,22,15,16,5.30
2018,12,22,15,17,6.50
2018,12,22,15,18,4.90
2018,12,22,15,19,2.30
2018,12,22,15,20,8.20
2018,12,22,15,21,5.60
2018,12,22,15,22,6.10
2018,12,22,15,23,8.20
2018,12,22,15,24,10.60
2018,12,22,15,25,5.70
2018,12,22,15,26,2.40
2018,12,22,15,27,4.70
2018,12,22,15,28,5.90
2018,12,22,15,29,4.50
2018,12,22,15,30,4.40
2018,12,22,15,31,1.80
2018,12,22,15,32,0.70
2018,12,22,15,33,3.40
2018,12,22,15,34,2.30
2018,12,22,15,35,0.00
2018,12,22,15,36,0.00
2018,12,22,15,37,1.10
2018,12,22,15,38,1.50
2018,12,22,15,39,2.90
2018,12,22,15,40,8.60
2018,12,22,15,41,6.40
2018,12,22,15,42,4.10
2018,12,22,15,43,1.00
2018,12,22,15,44,0.50
2018,12,22,15,45,1.80
2018,12,22,15,46,3.80
2018,12,22,15,47,3.50
2018,12,22,15,48,1.20
2018,12,22,15,49,4.40
2018,12,22,15,50,4.60
2018,12,22,15,51,8.00
2018,12,22,15,52,5.10
2018,12,22,15,53,2.40
2018,12,22,15,54,0.80
2018,12,22,15,55,0.00
2018,12,22,15,56,0.50
2018,12,22,15,57,1.50
2018,12,22,15,58,4.30
2018,12,22,15,59,4.50
2018,12,22,16,00,4.80
2018,12,22,16,01,3.80
2018,12,22,16,02,5.30
2018,12,22,16,03,5.80
2018,12,22,16,04,4.00
2018,12,22,16,05,3.60
2018,12,22,16,06,1.20
2018,12,22,16,07,0.20
2018,12,22,16,08,2.30
2018,12,22,16,09,5.60
2018,12,22,16,10,6.80
2018,12,22,16,11,0.60
2018,12,22,16,12,4.30
2018,12,22,16,13,1.90
2018,12,22,16,14,0.60
2018,12,22,16,15,0.10
2018,12,22,16,16,1.80
2018,12,22,16,17,0.60
2018,12,22,16,18,5.60
2018,12,22,16,19,3.80
2018,12,22,16,20,2.40
2018,12,22,16,21,2.90
2018,12,22,16,22,3.40
2018,12,22,16,23,4.10
2018,12,22,16,24,4.80
2018,12,22,16,25,0.50
2018,12,22,16,26,2.50
2018,12,22,16,27,4.60
2018,12,22,16,28,3.80
2018,12,22,16,29,3.50
2018,12,22,16,30,2.20
2018,12,22,16,31,1.90
2018,12,22,16,32,3.30
2018,12,22,16,33,0.40
2018,12,22,16,34,0.00
2018,12,22,16,35,0.00
2018,12,22,16,36,0.40
2018,12,22,16,37,0.20
2018,12,22,16,38,0.10
2018,12,22,16,39,0.80
2018,12,22,16,40,0.20
2018,12,22,16,41,0.30
2018,12,22,16,42,2.10
2018,12,22,16,43,2.60
2018,12,22,16,44,1.60
2018,12,22,16,45,2.50
2018,12,22,16,46,1.70
2018,12,22,16,47,2.30
2018,12,22,16,48,3.70
2018,12,22,16,49,0.50
2018,12,22,16,50,0.60
2018,12,22,16,51,0.20
2018,12,22,16,52,1.80
2018,12,22,16,53,4.30
2018,12,22,16,54,4.50
2018,12,22,16,55,2.50
2018,12,22,16,56,1.40
2018,12,22,16,57,2.00
2018,12,22,16,58,1.60
2018,12,22,16,59,0.00
2018,12,22,17,00,0.10
2018,12,22,17,01,0.20
2018,12,22,17,02,0.40
2018,12,22,17,03,0.90
2018,12,22,17,04,0.60
2018,12,22,17,05,1.00
2018,12,22,17,06,2.60
2018,12,22,17,07,0.40
2018,12,22,17,08,1.00
2018,12,22,17,09,2.00
2018,12,22,17,10,0.40
2018,12,22,17,11,3.70
2018,12,22,17,12,4.10
2018,12,22,17,13,1.70
2018,12,22,17,14,0.80
2018,12,22,17,15,0.00
2018,12,22,17,16,0.00
2018,12,22,17,17,0.00
2018,12,22,17,18,1.10
2018,12,22,17,19,4.30
2018,12,22,17,20,7.30
2018,12,22,17,21,9.30
2018,12,22,17,22,7.60
2018,12,22,17,23,6.00
2018,12,22,17,24,5.80
2018,12,22,17,25,3.60
2018,12,22,17,26,4.20
2018,12,22,17,27,6.30
2018,12,22,17,28,6.70
2018,12,22,17,29,8.00
2018,12,22,17,30,6.80
2018,12,22,17,31,4.30
2018,12,22,17,32,5.00
2018,12,22,17,33,4.50
2018,12,22,17,34,4.20
2018,12,22,17,35,3.00
2018,12,22,17,36,3.00
2018,12,22,17,37,4.10
2018,12,22,17,38,2.40
2018,12,22,17,39,4.40
2018,12,22,17,40,5.50
2018,12,22,17,41,6.80
2018,12,22,17,42,7.20
2018,12,22,17,43,7.40
2018,12,22,17,44,3.60
2018,12,22,17,45,1.90
2018,12,22,17,46,2.10
2018,12,22,17,47,2.40
2018,12,22,17,48,0.50
2018,12,22,17,49,0.00
2018,12,22,17,50,0.10
2018,12,22,17,51,0.00
2018,12,22,17,52,0.40
2018,12,22,17,53,1.10
2018,12,22,17,54,2.20
2018,12,22,17,55,2.50
2018,12,22,17,56,4.10
2018,12,22,17,57,1.50
2018,12,22,17,58,0.60
2018,12,22,17,59,0.10
2018,12,22,18,00,0.00
2018,12,22,18,01,0.00
2018,12,22,18,02,0.20
2018,12,22,18,03,1.70
2018,12,22,18,04,1.40
2018,12,22,18,05,2.40
2018,12,22,18,06,1.50